Vertical_Velocity
0 1 1 0 -0 -0 -1 -0 -0 -1 -1 -1 -1 -1 -0 -0 -0 -0 -0 -0 -1 -1 -0 0 1 1 1 -0 -0 -1 -1 -1 -0 -0 0 0 0 1 1 1 1 1 1 1 0 0 0 0 0 0 0 0 0 0 -0 -0 -0 0 0 0 0 0 -0 -0 -0 -0 -1 -0 -0 -0 0 0 -0 -0 -0 -0 -0 -0 -0 -0 -0 -0 -0 -0 -0 -0 -0 -0 0 0 0 0 0 -0 -0 -0 -0 -0 -0 -0 -0 -0 -0
0 1 1 1 1 0 -0 -0 -0 -0 -0 -1 -1 -0 -0 -0 -0 -0 -0 -1 -1 -1 -0 0 1 1 1 0 -0 -1 -1 -1 -1 -0 -0 0 0 1 1 1 1 1 1 1 1 1 1 1 0 0 0 0 0 0 0 -0 -0 0 0 0 0 0 -0 -0 -0 -0 -1 -1 -0 -0 -0 -0 -0 -0 -0 -0 -0 -0 -0 -0 -0 -0 -0 -0 -0 -0 -0 -0 -0 -0 -0 -0 -0 -0 -0 -0 -0 -0 -0 -0 -0 -0 -0
1 0 0 0 1 0 -0 -0 -0 -0 -0 -0 -0 -0 -0 -0 -0 -0 -1 -1 -1 -1 -0 0 1 1 1 1 -0 -0 -1 -1 -1 -1 -0 -0 -0 0 1 1 1 1 1 1 1 1 1 1 1 1 1 1 0 0 0 0 0 0 0 0 0 0 -0 -0 -0 -0 -0 -1 -0 -0 -0 -0 -0 -0 -0 -1 -1 -0 -0 -0 -0 -0 -0 -0 -0 -0 -0 -0 -0 -0 -0 -0 -0 -0 -0 -0 -0 -0 -0 -0 -0 -0 -0
1 0 -0 -0 -0 0 -0 -0 -0 -0 0 -0 -0 -0 -0 -0 -0 -1 -1 -1 -1 -1 -1 -0 1 1 1 1 0 -0 -1 -1 -1 -1 -1 -0 -0 -0 0 0 1 1 1 1 1 1 1 1 1 1 1 1 1 0 0 0 0 0 0 0 0 0 -0 -0 -0 -0 -0 -0 -0 -0 -0 -0 -0 -0 -0 -1 -1 -1 -0 -0 -0 -0 -0 -0 -0 -0 -0 -1 -1 -1 -1 -1 -0 -0 -0 -0 -0 -0 -0 -0 -0 -0 -0
1 1 1 -0 -0 -0 -0 -0 -0 -0 -0 -0 -0 -0 -0 -0 -1 -1 -1 -1 -1 -1 -1 -0 0 1 1 1 1 0 -0 -1 -1 -1 -1 -1 -0 -0 -0 -0 0 0 1 1 1 1 1 1 1 1 1 1 1 0 0 0 0 0 0 0 0 0 -0 -0 -0 -0 -0 -0 -0 -0 -0 -0 -0 -0 -0 -0 -0 -0 -0 -0 -0 -0 -0 -0 -0 -0 -1 -1 -1 -1 -1 -1 -1 -1 -0 -1 -1 -0 -0 -0 -0 -0 -0
1 1 2 1 1 0 -0 -0 -0 -0 -0 -0 -0 -0 -0 -0 -1 -1 -1 -1 -1 -1 -1 -0 0 1 1 1 1 0 -0 -1 -1 -1 -0 -0 -0 -0 -0 -0 -0 0 0 1 1 1 1 1 1 1 1 1 1 0 0 0 0 0 0 0 0 0 -0 -0 -0 -0 -0 -0 -0 -0 -0 -0 -0 -0 -0 -0 -0 -0 -0 -0 -0 -0 -1 -1 -1 -1 -1 -1 -1 -1 -1 -1 -1 -1 -1 -1 -1 -1 -1 -1 -0 -0 -0
1 1 1 1 1 1 0 0 -0 -0 -0 -0 -0 -0 -0 -1 -1 -1 -1 -1 -1 -1 -1 -0 0 0 1 1 1 0 -0 -0 -0 -0 -0 -0 -0 -1 -1 -0 -0 -0 0 0 1 1 1 1 1 1 1 1 1 0 0 0 -0 -0 0 0 0 -0 -0 -0 -0 -0 -0 -0 -0 -0 -0 -0 -0 -0 -0 -0 -0 -0 -0 -0 -0 -0 -0 -1 -1 -1 -1 -1 -1 -1 -1 -1 -1 -1 -1 -1 -1 -1 -1 -1 -1 -1 -1
1 -0 0 1 1 1 0 0 0 -0 -0 -0 -0 -0 -0 -1 -1 -1 -1 -1 -1 -1 -0 -0 0 0 0 1 0 0 -0 -1 -0 -0 -0 -0 -0 -1 -1 -0 -0 -0 0 0 1 1 1 1 1 1 1 1 0 0 0 0 -0 -0 -0 0 0 -0 -0 -0 -0 -0 -0 -0 -0 -0 -0 -0 -0 -0 -0 -0 -0 -0 -1 -1 -0 -0 -0 -1 -1 -1 -1 -1 -1 -1 -1 -1 -1 -1 -1 -1 -1 -1 -1 -1 -1 -1 -1
0 -1 0 0 0 0 0 0 0 0 -0 -0 -0 -0 -0 -0 -0 -0 -1 -1 -1 -1 -0 -0 0 0 0 0 0 -0 -1 -1 -1 -0 0 -0 -0 -0 -1 -0 -0 -0 0 0 1 1 1 1 1 1 1 0 0 0 -0 -0 -0 -0 -0 -0 0 -0 -0 -0 -0 -0 -0 0 0 0 -0 -0 -0 -0 -0 -0 -0 -0 -0 -0 -0 -1 -1 -0 -1 -1 -1 -1 -1 -1 -1 -1 -1 -1 -1 -1 -1 -1 -1 -1 -1 -1 -1
-2 -1 -0 0 0 0 0 0 0 0 0 -0 -0 -0 -0 -0 -0 -0 -1 -1 -1 -1 -0 -0 0 0 0 0 -0 -0 -1 -1 -1 -0 0 0 -0 -0 -0 -0 -0 0 0 0 1 1 1 1 1 0 0 0 0 -0 -0 0 0 0 0 -0 0 0 -0 -0 -0 -0 -0 -0 0 0 0 -0 -0 -0 -1 -0 -0 -0 -0 -0 -0 -1 -1 -1 -0 -0 -0 -0 -1 -1 -1 -1 -1 -1 -1 -1 -1 -1 -1 -1 -1 -1 -1
-1 -1 -0 0 0 0 0 0 0 0 0 -0 -0 -0 -0 -0 -0 -1 -1 -1 -1 -0 -0 0 0 0 0 0 -0 -0 -1 -1 -0 -0 0 0 -0 -0 -0 -0 0 0 0 0 1 1 1 1 0 0 0 0 0 -0 -0 -0 0 0 0 0 0 0 0 -0 -0 -0 -0 -0 -0 -0 -0 -0 -0 -0 -0 -0 -0 -0 -0 -0 -0 -0 -0 -0 -0 -0 -0 -0 -1 -1 -1 -1 -1 -1 -1 -1 -1 -1 -1 -1 -1 -2 -2
-1 -1 -0 0 0 0 0 1 0 0 0 -0 -0 -0 -0 -0 -0 -1 -1 -1 -1 -1 -0 0 0 0 0 0 -0 -0 -1 -1 -1 -0 0 0 -0 -0 -0 0 0 0 1 1 1 1 0 0 0 0 0 -0 -0 -0 -0 0 0 0 0 1 1 1 0 0 0 -0 -0 -0 -0 -0 -0 -0 -0 -0 -0 -0 -0 -0 -0 -0 -0 -0 -0 -0 -0 -0 -0 -0 -1 -1 -1 -1 -1 -1 -1 -1 -1 -1 -1 -1 -1 -1 -1
-1 -1 -0 0 0 0 0 1 1 1 0 0 -0 -0 -0 -0 -1 -1 -1 -1 -1 -1 -0 0 1 1 0 0 -0 -0 -1 -1 -1 -0 1 0 -0 -0 -0 0 0 1 1 1 1 1 0 0 0 0 0 -0 -0 -0 -0 -0 0 0 0 1 1 1 1 1 1 0 0 0 -0 -0 0 -0 -0 -0 -0 -0 -0 -0 -0 -0 -0 -0 -0 -0 -0 -0 -0 -0 -0 -0 -1 -1 -1 -1 -1 -1 -1 -1 -1 -1 -1 -1 -1
-1 -1 -0 -0 0 0 1 1 1 0 0 0 0 -0 -0 -0 -1 -1 -1 -1 -1 -1 -0 1 1 1 1 0 -0 -0 -1 -1 -1 -0 0 0 0 -0 -0 0 0 1 1 1 1 1 0 0 0 0 0 -0 -0 -0 -0 -0 -0 0 0 1 1 1 1 1 1 1 1 1 0 0 0 0 0 -0 -0 -0 -0 -0 -0 -0 -0 -0 -0 -0 -0 -0 -0 -0 -0 -0 -0 -0 -1 -1 -1 -1 -1 -1 -1 -1 -1 -1 -1
-1 -1 -1 -1 -0 0 0 1 1 0 0 0 0 0 -0 -0 -0 -1 -1 -1 -1 -1 -0 1 1 1 1 1 0 -0 -1 -1 -1 -1 0 0 0 -0 -0 0 0 1 1 1 1 0 0 0 0 0 0 -0 -0 -0 -0 0 0 0 0 0 1 1 1 1 1 1 1 1 1 1 1 1 0 0 -0 -0 -0 -0 -0 -0 -0 -0 -0 -0 -0 -0 -0 -0 -0 -0 -0 -0 -0 -0 -1 -0 -0 -1 -1 -1 -1 -1 -1
-1 -1 -1 -1 -1 -0 0 0 1 0 0 0 0 0 0 -0 -0 -0 -1 -1 -1 -1 -0 1 1 1 1 1 0 -0 -1 -1 -1 -1 -0 -0 -0 -0 -0 0 0 1 1 1 1 1 0 0 0 0 0 0 0 -0 0 0 0 0 0 0 0 1 1 1 1 1 1 1 1 1 1 1 0 0 0 0 -0 -0 -0 -0 -0 -0 -0 -0 -0 -0 -0 -0 -0 -0 -0 -0 -0 -0 -0 -0 -0 -0 -1 -1 -1 -1 -1
-1 -1 -1 -1 -1 -0 -0 0 0 0 0 0 0 1 1 0 -0 -0 -1 -1 -1 -1 -0 1 1 1 1 1 1 0 -0 -1 -1 -1 -1 -0 -0 -0 -0 -0 0 0 1 1 1 1 0 0 1 1 1 0 0 0 0 0 0 0 0 0 0 0 1 1 1 1 1 1 1 1 1 1 0 0 0 0 -0 -0 -0 -0 -0 -0 -0 -0 -0 -0 -0 -0 -0 -0 -0 -0 -0 -0 -0 -0 -0 -0 -1 -1 -1 -1 -1
-1 -1 -1 -1 -1 -1 -0 0 0 0 1 1 1 1 1 0 0 -0 -0 -1 -1 -1 -0 0 1 1 2 1 1 0 -0 -1 -1 -1 -1 -1 -1 -1 -1 -0 -0 0 0 0 0 0 0 0 1 1 1 1 0 0 0 0 1 1 1 0 0 0 1 1 1 1 1 1 1 1 1 0 0 0 0 0 -0 -0 -0 -0 -0 -0 -0 0 -0 -0 -0 -0 -0 -0 -0 -0 -0 -0 -0 -0 -0 -0 -1 -1 -1 -1 -1
-0 -1 -1 -1 -1 -1 -0 -0 0 1 1 1 1 1 1 1 0 0 -0 -1 -1 -1 -0 0 1 2 2 1 1 1 -0 -0 -1 -1 -1 -1 -1 -1 -1 -1 -0 -0 0 0 0 0 0 0 1 1 1 1 1 0 0 1 1 1 1 0 0 0 1 1 1 1 0 1 1 1 1 0 0 0 0 0 0 -0 -0 -0 -0 -0 -0 -0 -0 -0 -0 -0 -1 -1 -1 -0 -0 -0 -0 -0 -0 -0 -1 -1 -1 -1 -1
0 -0 -0 -1 -1 -1 -0 -0 0 1 1 1 1 1 1 1 1 0 -0 -1 -1 -1 -1 -0 1 1 2 2 1 1 0 -0 -1 -1 -1 -1 -1 -1 -1 -1 -0 -0 -0 0 0 0 0 0 1 1 1 1 1 1 1 1 1 1 1 1 1 1 1 1 1 0 0 0 0 0 0 0 0 0 0 0 0 -0 -0 -0 -0 -0 -0 -0 -0 -0 -1 -1 -1 -1 -1 -1 -0 -0 -0 -0 -0 -0 -1 -1 -1 -1 -1
0 0 -0 -0 -1 -1 -1 -0 0 1 1 1 1 1 1 1 1 0 -0 -1 -1 -2 -2 -1 -0 1 2 2 2 1 1 -0 -0 -0 -0 -0 -0 -0 -0 -0 -0 -0 -0 0 0 0 0 1 1 1 1 1 1 1 1 0 1 1 1 1 1 1 1 1 1 1 0 0 0 0 0 0 0 0 0 0 0 -0 -0 -0 -0 -1 -1 -1 -1 -1 -1 -1 -1 -1 -1 -1 -1 -1 -1 -1 -1 -1 -1 -1 -1 -1 -1
-0 1 0 -0 -1 -1 -1 -0 0 1 1 1 1 1 2 2 1 1 -0 -1 -2 -2 -2 -2 -1 1 2 2 2 2 1 1 0 -0 -0 -0 -0 -0 -0 -0 -0 -0 -0 0 0 0 0 1 1 1 1 1 1 1 1 0 0 1 1 1 1 1 1 1 1 1 0 0 0 0 0 0 0 0 0 0 0 0 -0 -0 -1 -1 -1 -1 -1 -1 -1 -1 -1 -1 -1 -1 -1 -1 -1 -1 -1 -1 -1 -1 -1 -1 -1
0 1 0 -0 -1 -1 -1 -0 -0 0 1 0 1 1 2 2 2 1 -0 -1 -2 -2 -3 -3 -2 -0 1 2 2 2 1 1 1 0 0 0 0 -0 -0 -0 -0 -0 0 0 0 0 1 1 1 1 1 1 1 1 1 0 0 0 1 1 1 1 1 1 1 1 0 0 0 1 0 0 0 0 -0 0 0 -0 -0 -1 -1 -1 -1 -1 -1 -1 -1 -1 -1 -1 -1 -1 -1 -1 -1 -2 -1 -1 -1 -1 -1 -1 -1
0 0 -0 -0 -1 -1 -0 -0 -0 0 0 0 1 2 2 2 2 1 0 -1 -1 -2 -3 -3 -2 -0 1 2 2 2 2 1 1 1 1 0 0 0 0 -0 -0 0 0 0 0 0 1 1 1 1 1 1 1 1 0 0 0 0 1 1 1 1 1 1 1 1 0 0 0 0 0 0 0 0 -0 -0 -0 -0 -0 -1 -1 -1 -1 -1 -1 -1 -1 -1 -1 -1 -1 -1 -2 -2 -2 -2 -2 -2 -1 -1 -1 -1 -1
-1 -0 -1 -1 -1 -0 -0 -0 0 0 0 0 1 2 2 1 1 1 1 -0 -1 -1 -2 -3 -2 -1 1 1 1 2 2 1 1 1 1 1 1 1 0 0 0 0 0 0 0 0 1 1 1 1 1 1 1 0 0 0 0 0 1 1 1 1 1 1 1 0 0 -0 -0 -0 -0 0 0 0 0 0 -0 -0 -0 -1 -1 -1 -1 -1 -1 -1 -1 -1 -1 -1 -1 -2 -2 -2 -2 -2 -2 -2 -1 -1 -1 -1 -1
-1 -1 -1 -1 -1 -0 -0 0 0 0 0 1 1 1 2 1 1 1 1 -0 -1 -1 -2 -2 -2 -1 0 0 1 1 1 1 1 1 1 1 1 1 1 0 0 0 0 0 0 0 1 1 1 1 1 1 0 0 0 0 0 0 0 1 1 1 1 1 1 1 -0 -0 -0 -0 -0 0 0 0 0 -0 -0 -0 -1 -1 -1 -1 -1 -1 -1 -1 -1 -1 -1 -2 -2 -2 -2 -2 -2 -2 -2 -1 -1 -1 -1 -1 -1
-0 -3 -2 -1 -1 -0 -0 0 0 0 0 0 1 1 1 1 1 1 1 0 -0 -1 -1 -2 -1 -1 -0 0 1 1 1 1 1 1 1 1 1 1 1 1 1 0 0 0 0 0 0 0 0 0 0 0 0 0 0 0 0 0 0 1 1 1 1 1 1 1 -0 -0 -0 -0 0 0 0 0 0 0 -0 -0 -1 -1 -1 -1 -1 -1 -1 -1 -1 -1 -2 -2 -2 -2 -2 -2 -2 -2 -1 -1 -1 -1 -1 -1 -1
3 -3 -1 -1 -0 0 0 0 0 0 0 0 0 1 1 1 1 1 1 0 -0 -1 -1 -1 -2 -1 -1 -0 0 1 1 1 1 1 1 1 1 2 1 1 1 1 1 1 1 0 0 0 0 0 0 1 0 0 0 0 0 0 0 1 1 1 1 1 1 1 -0 -0 -0 0 0 0 0 0 0 0 -0 -0 -1 -1 -1 -1 -1 -1 -1 -1 -1 -1 -2 -2 -2 -2 -2 -2 -2 -2 -1 -1 -1 -1 -1 -1 -1
5 -1 -1 -0 0 1 0 -0 -0 -0 0 0 0 1 1 1 1 1 1 0 -0 -1 -1 -1 -2 -1 -1 -0 0 1 1 1 1 1 1 1 1 2 2 2 1 1 1 1 1 1 0 0 0 0 0 0 0 0 0 1 1 1 1 1 1 1 1 1 1 1 -0 -1 -0 0 0 0 0 0 0 -0 -0 -0 -1 -1 -1 -1 -1 -1 -1 -1 -1 -2 -2 -2 -2 -2 -2 -2 -2 -2 -2 -1 -1 -1 -1 -1 -1
5 3 -1 -0 1 1 0 -1 -1 -1 -0 -0 -0 0 0 0 1 1 1 0 -0 -1 -1 -1 -2 -2 -1 -0 0 0 0 1 1 1 0 1 1 1 2 2 2 1 1 1 1 1 1 1 0 1 1 1 1 1 1 1 1 1 1 1 1 1 1 1 1 0 -0 -1 -1 -0 0 0 0 0 -0 -0 -0 -1 -1 -1 -1 -1 -1 -1 -1 -1 -2 -2 -2 -2 -2 -2 -2 -2 -2 -2 -2 -2 -1 -1 -1 -0 -0
1 3 -1 -1 0 1 1 -1 -1 -1 -0 -0 -0 -0 -0 -0 0 1 0 0 -0 -0 -1 -1 -2 -2 -2 -1 -0 0 0 1 1 1 0 0 1 1 2 2 2 2 1 1 1 1 1 1 1 1 1 1 1 1 1 1 1 1 1 1 1 1 1 1 1 1 -0 -0 -0 -0 0 -0 -0 -0 -0 -0 -1 -1 -1 -1 -1 -1 -1 -1 -1 -1 -2 -2 -2 -2 -2 -2 -2 -2 -2 -3 -3 -2 -2 -1 -1 -0 -0
-1 -0 -1 -1 -0 1 1 -0 -0 -0 0 -0 -0 -0 0 -0 -0 -0 -0 -0 -0 -0 -1 -1 -1 -2 -2 -1 -1 0 1 1 1 1 0 0 1 1 1 2 2 2 1 1 1 1 1 1 1 1 1 1 1 1 1 1 1 1 1 1 1 1 1 1 1 1 -0 -0 -0 0 0 -0 -0 -0 -0 -0 -0 -0 -1 -1 -1 -1 -1 -1 -2 -2 -2 -2 -2 -2 -2 -2 -2 -2 -2 -3 -3 -3 -3 -2 -1 -1 -1
-1 -1 -0 -0 -0 1 2 1 1 0 1 1 0 0 1 0 -0 -1 -1 -1 -1 -1 -1 -1 -1 -1 -2 -1 -1 -0 1 1 1 1 0 0 0 0 1 1 2 2 1 2 1 1 1 1 1 1 0 1 1 1 1 1 1 1 1 1 1 1 1 1 1 0 -0 0 0 0 0 0 0 0 -0 0 0 -0 -0 -1 -1 -1 -1 -1 -2 -2 -2 -2 -2 -2 -2 -2 -2 -2 -2 -2 -3 -3 -3 -3 -2 -2 -1
-1 -1 -0 -0 -0 0 2 1 1 1 1 1 1 1 1 0 -0 -1 -2 -2 -2 -2 -1 -1 -1 -1 -1 -1 -1 -0 1 1 1 1 1 0 -0 0 0 1 1 1 2 1 1 1 1 1 1 1 1 1 1 1 1 1 1 1 1 1 1 1 1 1 1 1 0 0 1 1 1 1 1 0 -0 -0 -0 -0 -0 -0 -1 -1 -1 -2 -2 -2 -2 -1 -1 -1 -1 -1 -2 -2 -2 -2 -2 -3 -3 -3 -3 -2 -2
-2 -1 -0 2 4 4 3 2 1 0 0 1 1 1 1 0 -1 -2 -2 -2 -2 -2 -1 -1 -0 -0 -1 -1 -1 -1 -0 1 1 1 1 0 -0 -0 0 1 1 1 1 1 1 1 1 1 1 1 1 1 1 0 1 1 1 1 1 1 1 1 1 1 1 1 0 0 1 1 1 1 1 0 -0 -0 -0 -0 -0 -1 -1 -1 -1 -2 -2 -2 -2 -1 -1 -1 -1 -1 -1 -1 -1 -1 -2 -2 -2 -3 -3 -3 -2
-2 -1 -1 5 8 8 2 3 2 -0 -1 0 1 1 1 -0 -1 -2 -2 -2 -2 -2 -1 -0 0 0 -0 -1 -1 -1 -1 -0 1 1 1 1 0 -0 0 0 0 1 1 1 1 1 2 1 1 1 1 1 1 0 0 0 1 1 1 1 1 1 1 1 1 0 0 1 1 1 1 1 0 0 -0 -0 -0 -0 -1 -1 -1 -1 -2 -2 -2 -2 -2 -1 -1 -1 -1 -1 -1 -1 -1 -1 -1 -2 -2 -2 -3 -3 -2
-2 -1 -1 2 4 4 1 5 5 1 -2 -0 0 0 0 -1 -2 -2 -2 -2 -2 -1 -1 0 0 0 0 -0 -1 -2 -2 -1 0 1 1 1 0 0 0 -0 -0 0 1 1 1 1 2 1 1 1 1 1 0 0 0 0 1 1 1 1 1 1 1 0 0 0 0 1 1 0 0 0 0 -0 -0 -0 -1 -1 -1 -1 -1 -1 -2 -1 -2 -2 -2 -1 -1 -1 -2 -1 -1 -1 -1 -1 -1 -1 -2 -2 -2 -2 -2
-1 -1 -0 0 1 1 0 5 7 6 0 -1 -0 -0 -0 -1 -2 -2 -1 -2 -2 -2 -1 -0 0 0 1 0 -1 -2 -2 -1 -0 0 0 1 1 1 0 -0 -0 0 0 0 1 1 1 1 1 1 1 0 0 0 0 1 1 1 1 1 1 1 1 1 0 0 0 0 0 0 0 -0 -0 -0 -0 -0 -0 -0 -0 -1 -1 -1 -1 -1 -2 -2 -2 -2 -1 -2 -2 -2 -2 -1 -1 -1 -1 -1 -1 -2 -2 -2 -2
-1 -1 -0 1 2 2 2 2 8 11 8 1 -1 -0 -0 -1 -1 -1 -1 -2 -2 -2 -1 -0 -0 0 1 1 -0 -1 -2 -1 -1 -0 -0 0 1 1 -0 -0 -0 -0 -0 0 1 1 1 1 1 1 0 0 0 0 1 1 1 0 0 0 0 0 0 0 0 1 1 1 0 0 0 -0 -0 -1 -1 -1 -0 -0 -0 -1 -1 -1 -1 -2 -2 -2 -1 -1 -1 -2 -2 -2 -2 -1 -1 -1 -1 -1 -1 -2 -2 -2 -2
-1 -0 0 1 2 2 2 2 6 10 12 4 -0 -1 -1 -1 -1 -1 -1 -2 -2 -2 -1 -1 -0 0 1 1 1 -0 -1 -1 -1 -1 -1 -0 0 0 -0 -0 -0 -0 -0 0 1 1 1 1 1 1 0 0 1 1 1 1 1 0 0 0 0 0 0 0 1 1 1 1 1 0 0 -0 -0 -0 -0 -0 -0 -0 -1 -1 -1 -1 -1 -1 -2 -2 -1 -1 -1 -2 -2 -2 -1 -1 -1 -1 -1 -1 -1 -2 -2 -2 -2
-2 -0 1 2 2 2 3 4 6 8 9 6 2 -1 -1 -1 -1 -1 -1 -1 -2 -2 -1 -1 0 1 1 1 1 1 -0 -1 -1 -1 -1 -1 -0 -0 0 0 0 0 0 0 1 0 0 1 1 0 0 0 1 1 1 1 0 0 0 0 0 0 0 0 0 1 1 1 1 1 0 -0 -0 -0 -0 -0 -0 -0 -1 -1 -1 -1 -1 -1 -1 -1 -1 -2 -2 -2 -2 -2 -1 -1 -1 -1 -1 -1 -2 -2 -2 -2 -2
-2 -0 2 2 2 2 3 7 9 9 5 5 3 -0 -1 -2 -1 -1 -0 -1 -2 -2 -2 -1 0 1 1 1 1 1 1 -0 -1 -1 -1 -1 -1 -1 0 1 1 0 0 0 0 0 -0 0 0 0 1 1 2 2 1 1 0 0 0 0 0 0 0 0 0 1 1 1 1 1 0 -0 -0 -0 -0 -0 -0 -0 -1 -1 -1 -1 -1 -1 -1 -1 -1 -2 -2 -2 -2 -2 -2 -1 -1 -1 -1 -1 -1 -2 -2 -2 -2
-2 0 2 2 2 2 2 6 11 12 5 4 2 0 -1 -1 -1 -0 -0 -1 -1 -2 -2 -1 0 1 1 1 1 1 1 1 0 -1 -1 -2 -2 -1 -0 0 1 1 1 1 0 -0 -0 -0 0 0 1 2 2 1 1 1 1 0 0 0 0 0 1 0 0 0 1 1 1 0 0 0 0 0 -0 -0 -0 -0 -0 -1 -1 -1 -1 -1 -1 -1 -1 -1 -2 -2 -2 -2 -2 -1 -1 -1 -1 -1 -1 -1 -1 -1 -2
-0 0 1 1 1 2 2 6 10 12 6 3 1 -0 -1 -1 -0 0 0 -0 -1 -1 -2 -1 0 1 1 1 1 1 2 2 1 -0 -1 -2 -2 -1 -1 -0 0 1 1 1 0 0 -0 -0 0 1 1 2 2 1 1 1 1 0 0 1 1 1 1 0 0 0 1 1 0 0 0 0 0 0 0 -0 -0 -0 -1 -1 -1 -1 -1 -1 -1 -1 -1 -1 -2 -2 -2 -2 -1 -1 -1 -1 -1 -1 -1 -1 -1 -1 -1
0 1 2 1 1 2 2 6 10 9 3 2 1 -0 -1 -0 0 1 1 0 -0 -1 -1 -1 0 1 1 1 1 1 2 2 1 -0 -1 -1 -1 -1 -1 -0 -0 0 1 1 0 0 -0 -0 0 1 1 2 1 1 1 1 0 0 0 1 1 1 1 0 0 0 0 0 0 0 0 0 0 0 0 -0 -0 -1 -1 -1 -1 -1 -1 -1 -1 -1 -1 -2 -2 -2 -2 -2 -1 -1 -1 -1 -1 -2 -2 -1 -1 -1 -1
1 2 2 1 1 2 1 5 6 5 0 1 2 5 6 4 2 2 2 1 0 -0 -1 -0 0 1 2 1 1 1 2 1 1 0 -0 -0 -0 -0 -0 -0 -0 0 1 1 0 0 0 0 0 1 1 1 1 1 1 1 0 0 1 1 0 0 1 0 -0 -0 -0 -0 0 1 1 1 1 0 0 0 -0 -1 -1 -1 -1 -1 -1 -1 -1 -1 -2 -2 -2 -2 -2 -2 -1 -1 -1 -1 -1 -1 -1 -1 -1 -1 -1
2 3 2 2 2 2 2 4 4 4 4 6 8 10 15 10 6 3 4 2 1 0 -0 0 1 1 1 2 2 2 2 1 1 1 1 0 0 1 1 -0 -0 0 1 1 0 0 0 0 1 1 1 1 1 1 1 1 0 0 1 -0 -0 0 1 0 -0 -0 -0 -0 0 1 1 1 1 1 0 -0 -0 -0 -1 -1 -1 -1 -1 -1 -1 -1 -2 -2 -2 -2 -2 -2 -2 -2 -1 -1 -1 -1 -1 -1 -0 -0 0
3 3 3 2 2 2 2 3 3 4 7 14 15 15 15 10 5 2 3 2 1 -0 -0 1 1 1 1 1 1 2 2 2 2 2 1 0 0 0 1 1 0 -0 0 1 0 -0 -0 0 1 1 2 2 1 1 1 1 1 1 0 -0 -0 0 0 -0 -0 -0 -0 0 0 1 1 1 1 1 0 -0 -0 -0 -0 -0 -0 -0 -1 -1 -1 -1 -1 -1 -2 -2 -2 -2 -2 -2 -2 -2 -2 -1 -1 -0 0 1 1
6 4 3 3 2 2 2 2 2 3 4 9 11 11 8 6 4 3 3 2 1 -1 -1 -1 -0 0 -0 -0 0 1 2 2 1 1 1 -0 -0 -0 0 1 1 0 -0 -0 0 -0 -0 0 1 2 2 2 2 1 0 1 1 1 -0 -0 -0 0 -0 -0 -0 -1 -0 0 0 1 1 1 1 1 0 0 -0 -0 -0 -0 -0 -0 -1 -1 -1 -1 -1 -1 -1 -2 -2 -2 -2 -3 -3 -3 -2 -2 -1 -1 0 1 1
9 6 4 2 2 1 2 2 2 2 1 2 2 2 2 2 2 3 7 3 0 -1 -2 -2 -2 -1 -0 -1 -0 1 2 2 1 1 0 -1 -1 0 1 1 1 -0 -1 -1 -0 0 0 1 1 2 2 2 2 1 -0 0 1 1 0 0 0 0 -0 -0 -1 -0 -0 0 0 1 1 1 1 1 1 0 -0 -0 -0 -0 -0 -1 -1 -1 -1 -1 -1 -1 -1 -2 -2 -2 -2 -2 -3 -2 -2 -2 -2 -1 -1 0 1
8 7 4 2 1 1 1 1 2 2 1 1 1 2 3 1 0 2 8 3 0 -1 -1 -2 -2 -1 1 0 -0 -0 1 0 0 0 0 -2 -1 1 2 -0 -0 -0 -1 -1 -1 -0 1 1 2 2 3 2 2 1 -0 -0 1 1 1 1 1 1 -0 -1 -1 -0 0 0 0 1 1 1 1 1 1 1 0 -0 -1 -1 -1 -1 -1 -1 -1 -1 -1 -1 -2 -2 -2 -2 -2 -2 -2 -2 -2 -2 -2 -2 -1 -0 1
8 8 7 4 2 0 -0 1 1 1 1 4 5 4 2 1 1 2 3 2 1 -0 0 -1 -1 -0 1 1 0 -1 0 -0 -0 -0 -0 -1 -1 -0 -0 -1 -1 -1 -1 0 -1 -1 1 2 3 3 3 2 1 1 -0 -0 0 1 1 2 2 1 -0 -1 -1 -1 0 0 0 0 1 1 1 1 1 1 0 -0 -0 -1 -1 -1 -2 -1 -1 -1 -1 -2 -2 -2 -2 -2 -1 -1 -1 -1 -1 -2 -2 -2 -2 -1 -0
10 11 10 8 5 2 1 1 0 -1 0 7 7 4 1 2 2 2 2 2 1 1 1 -0 0 1 1 0 -0 -1 -1 0 0 0 1 0 -0 -1 -2 -0 -1 -1 -1 2 0 -2 0 4 4 4 3 2 1 -0 -1 0 0 1 1 2 1 1 1 -0 -1 -0 1 1 0 -0 0 0 1 1 1 1 0 -0 -0 -1 -1 -2 -2 -2 -2 -2 -2 -2 -3 -3 -2 -2 -1 -1 -1 -1 -1 -1 -1 -2 -2 -1 -1
9 12 12 12 10 7 2 1 -0 -0 1 4 6 6 3 3 3 3 4 6 3 -0 1 0 1 2 0 -2 -2 -1 -1 1 2 1 0 -1 -1 -1 -2 -2 -1 0 1 2 0 -1 -1 5 6 4 -0 1 1 0 -1 0 0 0 0 1 1 1 1 -0 -0 -0 1 0 0 0 0 0 1 1 1 1 0 -0 -0 -1 -1 -1 -2 -2 -2 -2 -3 -3 -3 -3 -2 -1 -1 -1 -1 -1 -1 -1 -1 -1 -1 -1 -1
3 8 12 12 13 11 5 2 2 3 2 1 5 9 13 7 4 3 5 9 6 1 1 1 1 2 -0 -3 -3 -1 2 2 2 1 -1 -3 -2 0 -1 -1 1 3 1 -0 -0 1 3 6 4 1 -3 -1 0 1 -0 0 0 -0 -1 -0 0 0 0 -0 -0 -0 0 0 0 1 1 1 0 0 0 -0 -0 -0 -1 -0 -1 -1 -1 -2 -2 -3 -3 -4 -3 -3 -2 -1 -1 -1 -1 -1 -1 -1 -1 -1 -1 -1 -1
1 4 9 9 10 11 10 5 4 3 3 3 2 4 9 7 5 5 7 9 8 6 4 2 2 1 -1 -1 -0 1 3 2 0 -1 -2 -4 -2 1 1 1 1 -0 -2 -2 -0 3 8 5 2 -2 -7 -3 1 2 -1 -0 0 -0 -1 -1 -0 -0 -1 -1 -0 0 0 0 1 1 1 1 1 0 -0 -0 -1 -1 -1 -0 -0 -1 -1 -2 -3 -3 -3 -3 -3 -2 -2 -1 -1 -1 -1 -2 -2 -1 -1 -1 -1 -1 -1
1 2 5 6 6 6 7 6 5 4 4 2 -0 -2 -1 2 5 6 9 13 16 15 7 6 5 4 2 2 2 1 1 1 -1 -3 -3 -3 -2 -1 1 -1 -3 -4 -1 -1 1 4 5 1 0 -2 -10 -3 1 2 -1 -1 -0 -0 -0 -1 -1 -1 -1 -0 1 2 1 1 1 1 1 1 1 0 -1 -1 -1 -1 -1 -1 -1 -1 -2 -3 -3 -2 -2 -2 -2 -2 -2 -1 -1 -1 -2 -2 -2 -1 -1 -1 -1 -1 -1
-0 1 2 3 2 2 4 5 6 6 4 1 -1 -2 -2 0 3 5 4 9 16 20 13 10 9 8 7 5 3 1 -0 -1 -3 -4 -4 -4 -3 -3 -2 -2 -2 -1 1 -1 1 3 1 0 -1 -4 -7 -2 -1 -1 2 0 -1 -1 0 -0 -1 -1 -1 1 3 4 3 2 1 1 0 -0 -0 -0 -1 -1 -1 -1 -1 -1 -1 -2 -2 -2 -2 -2 -1 -1 -2 -2 -2 -1 -1 -1 -2 -2 -2 -1 -1 -0 -0 -0 -0
-2 -1 -0 -0 -0 1 3 4 6 6 4 2 1 -0 -1 -1 1 3 3 4 11 18 21 13 9 7 9 7 5 1 -2 -3 -3 -3 -4 -4 -5 -5 -1 -0 1 1 -0 -1 -0 1 2 1 -3 -6 0 1 -2 -4 1 1 -0 -1 -0 -1 -1 -1 -1 2 5 6 3 1 1 0 -0 -2 -2 -1 -0 -1 -1 -1 -1 -2 -2 -2 -2 -2 -1 -1 -1 -1 -1 -1 -1 -1 -1 -1 -2 -2 -2 -1 -0 0 1 1 0
-3 -2 -2 -2 -2 -1 1 4 5 6 4 3 2 0 -1 -2 1 5 8 3 7 17 29 18 10 6 9 6 3 0 -2 -2 -2 -2 -3 -5 -7 -6 2 2 1 -1 -2 -2 -1 0 4 2 -1 -2 2 -1 -2 -1 0 -1 -1 0 0 -1 -2 -2 -1 1 5 7 4 1 0 -1 -1 -3 -3 -2 -0 -1 -1 -1 -1 -1 -1 -1 -1 -1 -1 -0 -1 -1 -1 -0 -0 -0 -0 -1 -2 -3 -2 -1 0 1 2 2 1
-4 -2 -2 -2 -2 -1 1 3 4 5 4 3 2 0 -1 -1 3 7 8 1 4 15 31 25 16 9 7 4 2 1 0 1 -0 -2 -4 -4 -6 -5 3 3 0 -2 -1 -3 -2 0 6 8 6 3 1 -2 -1 1 -0 -2 -1 -0 -2 -3 -2 -1 -2 -0 2 4 5 2 -0 -2 -3 -4 -3 -2 -0 -1 -1 -1 -1 -0 -0 -1 -1 -1 -1 -1 -1 -1 -0 0 0 0 -0 -1 -2 -2 -2 -1 0 1 2 3 2
Height
5882 5883 5883 5884 5884 5884 5885 5885 5886 5886 5886 5887 5887 5887 5887 5888 5888 5888 5888 5889 5889 5889 5890 5890 5891 5891 5891 5891 5891 5891 5892 5892 5892 5892 5893 5893 5893 5894 5894 5894 5894 5894 5894 5894 5894 5894 5894 5894 5894 5894 5894 5894 5894 5894 5895 5895 5895 5895 5895 5895 5895 5895 5895 5894 5894 5894 5894 5894 5894 5893 5893 5893 5892 5892 5892 5891 5891 5891 5890 5890 5889 5889 5889 5888 5888 5887 5887 5886 5886 5885 5885 5884 5884 5883 5883 5882 5881 5881 5880 5879 5879 5878 5877
5881 5882 5882 5883 5883 5884 5884 5884 5885 5885 5885 5886 5886 5886 5887 5887 5887 5887 5888 5888 5888 5889 5889 5889 5890 5890 5891 5891 5891 5891 5891 5891 5891 5892 5892 5893 5893 5893 5893 5894 5894 5894 5894 5894 5894 5894 5894 5894 5894 5894 5894 5894 5894 5894 5894 5894 5894 5894 5894 5894 5894 5894 5894 5894 5894 5894 5893 5893 5893 5893 5892 5892 5892 5891 5891 5891 5890 5890 5889 5889 5889 5888 5888 5888 5887 5887 5886 5886 5885 5885 5884 5884 5883 5883 5882 5881 5880 5880 5879 5879 5878 5877 5876
5880 5880 5881 5882 5882 5883 5883 5884 5884 5884 5885 5885 5885 5885 5886 5886 5886 5887 5887 5887 5887 5888 5888 5889 5889 5890 5890 5890 5890 5890 5890 5890 5891 5891 5892 5892 5892 5893 5893 5893 5893 5893 5893 5893 5893 5893 5893 5893 5893 5893 5893 5893 5893 5893 5893 5894 5894 5894 5894 5894 5894 5894 5893 5893 5893 5893 5893 5892 5892 5892 5892 5891 5891 5891 5890 5890 5889 5889 5889 5889 5888 5888 5887 5887 5886 5886 5885 5885 5884 5884 5884 5883 5882 5882 5881 5880 5880 5879 5878 5878 5877 5876 5875
5879 5879 5879 5880 5881 5882 5882 5883 5883 5884 5884 5884 5884 5884 5885 5885 5885 5886 5886 5886 5886 5887 5887 5888 5889 5889 5889 5889 5889 5889 5890 5890 5890 5890 5891 5891 5892 5892 5892 5892 5892 5892 5892 5892 5892 5892 5892 5892 5892 5892 5893 5893 5893 5893 5893 5893 5893 5893 5893 5893 5893 5893 5893 5892 5892 5892 5892 5892 5891 5891 5891 5890 5890 5890 5890 5889 5888 5888 5888 5888 5887 5887 5886 5886 5885 5885 5885 5884 5884 5883 5883 5882 5881 5881 5880 5879 5879 5878 5877 5877 5876 5875 5874
5878 5878 5879 5879 5879 5880 5881 5882 5882 5883 5883 5883 5884 5884 5884 5884 5884 5885 5885 5885 5885 5886 5886 5887 5888 5888 5889 5889 5889 5889 5889 5889 5889 5890 5890 5891 5891 5891 5891 5891 5892 5892 5892 5892 5892 5892 5892 5892 5892 5892 5892 5892 5892 5892 5892 5892 5892 5892 5892 5892 5892 5892 5892 5892 5892 5891 5891 5891 5891 5890 5890 5890 5889 5889 5889 5889 5888 5888 5888 5887 5887 5886 5886 5885 5885 5884 5884 5884 5883 5882 5882 5881 5881 5880 5879 5879 5878 5877 5876 5876 5875 5874 5874
5877 5876 5878 5878 5879 5879 5880 5880 5881 5881 5882 5882 5883 5883 5883 5883 5884 5884 5884 5884 5885 5885 5886 5886 5887 5887 5888 5888 5888 5888 5888 5888 5889 5889 5889 5890 5890 5890 5890 5891 5891 5891 5891 5891 5891 5891 5891 5891 5891 5891 5891 5891 5891 5891 5891 5891 5891 5891 5891 5891 5891 5891 5891 5891 5891 5891 5890 5890 5890 5890 5889 5889 5889 5889 5888 5888 5888 5887 5887 5886 5886 5885 5885 5884 5884 5884 5883 5883 5882 5882 5881 5880 5880 5879 5878 5878 5877 5876 5875 5874 5874 5873 5872
5875 5875 5876 5877 5878 5878 5879 5879 5880 5880 5881 5881 5882 5882 5882 5882 5882 5883 5883 5884 5884 5884 5885 5885 5886 5886 5887 5887 5887 5887 5887 5887 5888 5888 5889 5889 5889 5889 5889 5890 5890 5890 5890 5890 5890 5890 5890 5890 5890 5890 5890 5890 5890 5890 5890 5890 5890 5890 5890 5890 5890 5890 5890 5890 5890 5890 5890 5889 5889 5889 5889 5888 5888 5888 5888 5887 5887 5886 5886 5885 5885 5885 5884 5884 5883 5883 5882 5882 5881 5881 5880 5879 5879 5878 5877 5877 5876 5875 5874 5874 5873 5872 5871
5874 5874 5874 5875 5876 5876 5877 5878 5879 5879 5880 5880 5881 5881 5881 5881 5881 5882 5882 5883 5883 5884 5884 5884 5885 5886 5886 5886 5886 5886 5886 5887 5887 5887 5888 5888 5888 5889 5889 5889 5889 5889 5889 5889 5889 5889 5889 5889 5889 5889 5889 5889 5889 5889 5889 5890 5890 5890 5889 5890 5889 5889 5889 5889 5889 5889 5889 5889 5889 5888 5888 5888 5887 5887 5887 5886 5886 5885 5885 5885 5884 5884 5884 5883 5883 5882 5882 5881 5880 5880 5879 5879 5878 5877 5876 5876 5875 5874 5873 5873 5872 5871 5870
5872 5873 5873 5874 5874 5875 5876 5877 5877 5878 5879 5879 5879 5880 5880 5880 5881 5881 5881 5881 5882 5883 5883 5884 5884 5885 5885 5885 5885 5885 5885 5886 5886 5886 5887 5887 5887 5888 5888 5888 5888 5888 5889 5889 5889 5889 5889 5889 5889 5889 5889 5889 5889 5889 5889 5889 5889 5889 5889 5889 5889 5889 5889 5889 5888 5888 5889 5888 5888 5887 5887 5887 5887 5886 5886 5886 5885 5885 5884 5884 5884 5883 5883 5882 5882 5881 5881 5880 5879 5879 5879 5878 5877 5876 5875 5875 5874 5873 5873 5872 5871 5870 5870
5870 5871 5872 5872 5873 5874 5874 5875 5876 5877 5877 5878 5878 5879 5879 5879 5879 5880 5880 5880 5881 5881 5882 5883 5883 5884 5884 5884 5884 5885 5885 5885 5885 5885 5886 5886 5886 5887 5887 5887 5887 5887 5888 5888 5888 5888 5888 5888 5888 5888 5888 5888 5888 5888 5888 5888 5888 5888 5888 5888 5888 5888 5888 5888 5887 5887 5888 5887 5887 5887 5886 5886 5886 5885 5885 5885 5884 5884 5884 5884 5883 5883 5882 5882 5881 5880 5880 5879 5879 5878 5878 5877 5876 5875 5875 5874 5873 5873 5872 5871 5870 5870 5869
5869 5869 5870 5871 5872 5872 5873 5874 5874 5875 5876 5877 5877 5878 5878 5878 5879 5879 5879 5879 5880 5880 5881 5882 5882 5883 5883 5884 5884 5884 5884 5884 5884 5885 5885 5885 5886 5886 5886 5886 5886 5886 5887 5887 5887 5887 5887 5887 5887 5887 5887 5887 5887 5887 5887 5887 5887 5887 5887 5887 5887 5887 5887 5887 5887 5887 5887 5886 5886 5886 5886 5885 5885 5885 5884 5884 5884 5884 5883 5883 5882 5882 5881 5881 5880 5880 5879 5879 5878 5878 5877 5876 5876 5875 5874 5873 5873 5872 5871 5870 5870 5869 5869
5867 5868 5869 5869 5870 5871 5871 5872 5873 5874 5874 5875 5876 5876 5877 5877 5877 5878 5878 5878 5879 5879 5880 5881 5881 5882 5882 5883 5883 5883 5883 5883 5883 5884 5884 5884 5885 5885 5885 5885 5885 5885 5886 5886 5886 5886 5886 5886 5886 5886 5886 5886 5886 5886 5886 5886 5886 5886 5886 5886 5886 5886 5886 5886 5886 5886 5886 5886 5885 5885 5885 5884 5884 5884 5884 5884 5883 5883 5882 5882 5882 5881 5881 5880 5879 5879 5879 5878 5877 5877 5876 5875 5875 5874 5874 5873 5872 5871 5870 5870 5869 5869 5868
5865 5866 5867 5868 5869 5869 5870 5871 5871 5872 5873 5874 5874 5875 5875 5876 5876 5877 5877 5877 5878 5878 5879 5879 5880 5881 5881 5882 5882 5882 5882 5882 5882 5883 5883 5884 5884 5884 5884 5884 5884 5885 5885 5885 5885 5885 5885 5885 5885 5885 5885 5885 5885 5885 5885 5885 5885 5885 5885 5885 5885 5885 5885 5885 5885 5885 5885 5885 5884 5884 5884 5884 5883 5883 5883 5883 5882 5882 5882 5881 5881 5880 5880 5879 5879 5878 5878 5877 5877 5876 5875 5875 5874 5873 5873 5872 5871 5870 5870 5869 5868 5868 5867
5863 5864 5865 5866 5867 5868 5868 5869 5870 5871 5872 5872 5873 5874 5874 5875 5875 5875 5876 5876 5876 5877 5877 5878 5879 5879 5880 5880 5881 5881 5881 5881 5881 5882 5882 5883 5883 5883 5883 5884 5884 5884 5884 5884 5884 5884 5884 5884 5884 5884 5884 5884 5884 5884 5884 5884 5884 5884 5884 5884 5884 5884 5884 5884 5884 5884 5884 5884 5884 5883 5883 5883 5882 5882 5882 5882 5881 5881 5881 5880 5880 5879 5879 5879 5878 5877 5877 5876 5876 5875 5874 5874 5873 5872 5872 5871 5870 5869 5869 5868 5867 5866 5866
5862 5863 5863 5864 5865 5866 5867 5867 5868 5869 5870 5871 5871 5872 5873 5873 5874 5874 5874 5875 5875 5875 5876 5877 5878 5878 5879 5879 5879 5880 5880 5880 5880 5881 5881 5882 5882 5882 5882 5883 5883 5883 5883 5883 5883 5883 5883 5883 5883 5883 5883 5883 5884 5884 5884 5884 5884 5884 5883 5883 5883 5883 5883 5883 5883 5883 5883 5883 5883 5882 5882 5882 5881 5881 5881 5881 5881 5880 5880 5879 5879 5879 5878 5878 5877 5877 5876 5875 5875 5874 5874 5873 5872 5871 5871 5870 5869 5869 5868 5867 5866 5865 5864
5860 5861 5862 5862 5863 5864 5865 5866 5867 5867 5868 5869 5870 5871 5871 5872 5872 5873 5873 5873 5874 5874 5875 5875 5876 5877 5878 5878 5878 5879 5879 5879 5879 5880 5880 5880 5881 5881 5881 5881 5882 5882 5882 5882 5882 5882 5882 5882 5882 5882 5882 5882 5882 5882 5883 5883 5883 5883 5882 5882 5882 5882 5882 5882 5882 5882 5882 5882 5882 5881 5881 5881 5881 5880 5880 5880 5880 5879 5879 5879 5878 5878 5877 5877 5876 5875 5875 5874 5874 5873 5873 5872 5871 5870 5870 5869 5868 5867 5867 5866 5865 5864 5864
5858 5859 5860 5861 5861 5862 5863 5864 5865 5866 5866 5867 5868 5869 5869 5870 5871 5871 5872 5872 5872 5873 5873 5874 5875 5875 5876 5877 5877 5877 5878 5878 5878 5879 5879 5879 5880 5880 5880 5880 5880 5881 5881 5881 5881 5881 5881 5881 5881 5881 5881 5881 5881 5881 5881 5881 5881 5882 5881 5881 5881 5881 5881 5881 5881 5881 5881 5881 5880 5880 5880 5880 5879 5879 5879 5879 5879 5879 5878 5878 5877 5877 5876 5876 5875 5874 5874 5873 5873 5872 5871 5871 5870 5869 5869 5868 5867 5866 5865 5865 5864 5863 5862
5856 5857 5858 5859 5860 5861 5862 5862 5863 5864 5865 5866 5867 5867 5868 5869 5869 5870 5870 5870 5871 5871 5872 5873 5873 5874 5875 5875 5876 5876 5876 5877 5877 5877 5878 5878 5878 5879 5879 5879 5879 5879 5880 5880 5880 5880 5880 5880 5880 5880 5880 5880 5880 5880 5880 5880 5880 5880 5880 5880 5880 5880 5880 5880 5880 5880 5880 5880 5879 5879 5879 5879 5879 5878 5878 5878 5878 5877 5877 5877 5876 5876 5875 5875 5874 5874 5873 5872 5872 5871 5870 5869 5869 5868 5867 5866 5866 5865 5864 5864 5863 5862 5861
5854 5855 5856 5857 5858 5859 5860 5861 5862 5862 5863 5864 5865 5866 5866 5867 5867 5868 5869 5869 5869 5869 5870 5871 5872 5872 5873 5874 5874 5875 5875 5875 5876 5876 5876 5877 5877 5877 5878 5878 5878 5879 5879 5879 5879 5879 5879 5879 5879 5879 5879 5879 5879 5879 5879 5879 5879 5879 5879 5879 5879 5879 5879 5879 5879 5879 5879 5879 5879 5878 5878 5878 5878 5877 5877 5877 5876 5876 5876 5875 5875 5875 5874 5874 5873 5872 5872 5871 5870 5870 5869 5868 5868 5867 5866 5865 5864 5864 5863 5862 5861 5860 5859
5852 5854 5854 5855 5856 5857 5858 5859 5860 5861 5861 5862 5863 5864 5864 5865 5866 5866 5867 5867 5868 5868 5869 5869 5870 5871 5872 5872 5873 5874 5874 5874 5874 5874 5875 5875 5876 5876 5876 5877 5877 5877 5877 5878 5878 5878 5878 5878 5878 5878 5878 5878 5878 5878 5878 5878 5878 5878 5878 5878 5878 5878 5878 5878 5878 5878 5878 5878 5877 5877 5877 5877 5876 5876 5876 5875 5875 5875 5874 5874 5874 5874 5873 5873 5872 5871 5871 5870 5869 5869 5868 5867 5866 5865 5865 5864 5863 5862 5861 5860 5860 5859 5858
5851 5852 5853 5854 5854 5855 5856 5857 5858 5859 5859 5860 5861 5862 5863 5863 5864 5864 5865 5865 5866 5866 5867 5867 5868 5869 5870 5871 5871 5872 5872 5873 5873 5873 5874 5874 5874 5875 5875 5875 5876 5876 5876 5876 5876 5876 5877 5877 5877 5877 5877 5877 5877 5877 5877 5877 5877 5877 5877 5877 5877 5877 5877 5876 5876 5876 5876 5876 5876 5876 5876 5876 5875 5875 5875 5874 5874 5874 5873 5873 5873 5872 5872 5871 5871 5870 5869 5869 5868 5868 5867 5866 5865 5864 5864 5863 5862 5861 5860 5859 5858 5857 5856
5849 5849 5850 5851 5852 5853 5854 5855 5856 5857 5858 5859 5859 5860 5861 5861 5861 5862 5863 5864 5864 5864 5865 5865 5866 5867 5868 5869 5869 5870 5871 5871 5872 5872 5872 5873 5873 5874 5874 5874 5874 5874 5875 5875 5875 5875 5875 5875 5875 5876 5876 5876 5876 5876 5876 5876 5876 5876 5876 5876 5876 5875 5875 5875 5875 5875 5875 5875 5875 5875 5874 5874 5874 5874 5874 5873 5873 5872 5872 5872 5871 5871 5870 5870 5869 5869 5868 5868 5867 5866 5866 5865 5864 5863 5862 5861 5861 5860 5859 5858 5857 5856 5855
5846 5847 5848 5849 5850 5851 5852 5853 5854 5855 5856 5857 5858 5858 5859 5859 5859 5860 5861 5861 5862 5862 5863 5864 5864 5865 5866 5867 5868 5869 5869 5869 5870 5870 5871 5871 5872 5872 5872 5873 5873 5873 5874 5874 5874 5874 5874 5874 5874 5874 5874 5874 5874 5875 5875 5875 5875 5875 5874 5874 5874 5874 5874 5874 5874 5874 5874 5874 5874 5874 5874 5873 5873 5873 5872 5872 5872 5871 5871 5870 5870 5870 5869 5869 5868 5868 5867 5867 5866 5865 5864 5864 5863 5862 5861 5860 5859 5859 5858 5856 5855 5854 5854
5844 5845 5846 5847 5848 5849 5850 5851 5852 5853 5854 5854 5855 5856 5857 5857 5858 5858 5859 5859 5860 5860 5861 5862 5863 5864 5864 5865 5866 5867 5867 5868 5868 5869 5869 5870 5870 5871 5871 5871 5871 5872 5872 5872 5872 5873 5873 5873 5873 5873 5873 5873 5873 5873 5873 5873 5873 5873 5873 5873 5873 5873 5873 5873 5873 5873 5873 5873 5873 5872 5872 5872 5872 5871 5871 5871 5870 5870 5869 5869 5869 5868 5868 5867 5867 5866 5866 5865 5864 5864 5863 5862 5862 5861 5860 5859 5858 5857 5856 5855 5854 5853 5852
5841 5842 5844 5845 5846 5847 5848 5849 5850 5850 5851 5852 5853 5854 5855 5855 5856 5856 5857 5857 5858 5859 5859 5860 5861 5862 5863 5863 5864 5865 5865 5866 5867 5867 5868 5868 5869 5869 5869 5869 5870 5870 5870 5870 5871 5871 5871 5871 5872 5872 5872 5872 5872 5872 5872 5872 5872 5872 5872 5872 5872 5872 5872 5871 5871 5871 5872 5871 5871 5871 5871 5871 5870 5870 5870 5869 5869 5869 5868 5868 5867 5867 5867 5866 5865 5865 5864 5864 5863 5863 5862 5861 5860 5859 5859 5858 5857 5856 5855 5854 5853 5852 5851
5839 5839 5841 5842 5843 5844 5845 5846 5848 5849 5849 5850 5850 5851 5853 5853 5854 5854 5855 5855 5856 5856 5857 5858 5859 5860 5860 5861 5862 5863 5864 5864 5865 5865 5866 5867 5867 5867 5868 5868 5868 5869 5869 5869 5869 5869 5869 5870 5870 5870 5870 5870 5870 5871 5871 5871 5871 5871 5871 5870 5870 5870 5870 5870 5870 5870 5870 5870 5870 5870 5869 5869 5869 5869 5869 5868 5868 5867 5867 5866 5866 5866 5865 5864 5864 5864 5863 5862 5862 5861 5860 5859 5859 5858 5857 5856 5855 5854 5853 5852 5851 5850 5849
5836 5837 5839 5840 5841 5842 5843 5844 5845 5846 5847 5848 5849 5850 5850 5851 5852 5852 5853 5853 5854 5854 5855 5856 5857 5858 5859 5859 5860 5861 5861 5862 5863 5864 5864 5865 5865 5866 5866 5866 5867 5867 5867 5867 5868 5868 5868 5868 5869 5869 5869 5869 5869 5869 5869 5869 5869 5869 5869 5869 5869 5869 5869 5869 5869 5869 5869 5869 5869 5869 5868 5868 5868 5867 5867 5867 5866 5866 5865 5865 5865 5864 5864 5863 5863 5862 5862 5861 5860 5859 5859 5858 5857 5857 5856 5855 5854 5853 5852 5851 5850 5849 5848
5834 5834 5835 5837 5838 5839 5840 5842 5843 5844 5845 5846 5848 5848 5848 5849 5849 5850 5850 5851 5852 5852 5853 5854 5854 5855 5856 5857 5858 5859 5859 5860 5861 5861 5862 5863 5863 5864 5864 5865 5865 5865 5865 5866 5866 5866 5866 5867 5867 5867 5867 5867 5868 5868 5868 5868 5868 5868 5868 5868 5868 5868 5867 5867 5867 5867 5867 5867 5867 5867 5867 5867 5866 5866 5865 5865 5865 5864 5864 5864 5863 5863 5863 5862 5861 5861 5860 5859 5859 5858 5858 5857 5856 5855 5854 5854 5853 5852 5850 5849 5848 5847 5846
5833 5833 5833 5834 5835 5837 5838 5839 5840 5842 5843 5844 5845 5846 5846 5847 5848 5848 5849 5849 5850 5850 5851 5851 5852 5853 5854 5855 5856 5857 5857 5858 5859 5859 5860 5861 5861 5862 5863 5863 5863 5864 5864 5864 5864 5864 5865 5865 5865 5865 5866 5866 5866 5866 5866 5866 5866 5866 5866 5866 5866 5866 5866 5866 5866 5866 5866 5866 5866 5866 5865 5865 5865 5864 5864 5864 5863 5863 5863 5862 5862 5861 5861 5860 5860 5859 5859 5858 5858 5857 5856 5855 5855 5854 5853 5852 5851 5850 5849 5848 5847 5846 5845
5830 5830 5830 5831 5833 5834 5835 5837 5838 5839 5840 5841 5842 5843 5844 5845 5846 5846 5847 5847 5848 5848 5849 5849 5850 5851 5852 5853 5854 5854 5855 5856 5857 5858 5858 5859 5859 5860 5860 5861 5861 5862 5862 5862 5863 5863 5863 5864 5864 5864 5864 5864 5864 5864 5864 5864 5864 5864 5864 5864 5864 5864 5864 5864 5864 5864 5864 5864 5864 5864 5864 5864 5863 5863 5863 5862 5862 5861 5861 5860 5860 5860 5859 5859 5858 5858 5857 5857 5856 5855 5855 5854 5853 5853 5852 5851 5850 5849 5848 5847 5846 5844 5843
5826 5828 5828 5829 5830 5832 5833 5834 5836 5837 5838 5839 5840 5841 5841 5843 5844 5844 5844 5845 5846 5846 5847 5847 5848 5849 5849 5850 5851 5852 5853 5854 5855 5856 5856 5857 5857 5858 5859 5859 5859 5860 5860 5861 5861 5861 5862 5862 5862 5862 5862 5863 5863 5863 5863 5863 5863 5863 5863 5863 5863 5863 5863 5863 5863 5862 5863 5863 5863 5863 5862 5862 5862 5861 5861 5861 5860 5860 5859 5859 5859 5858 5858 5857 5857 5856 5856 5855 5854 5854 5853 5853 5852 5851 5850 5850 5849 5848 5847 5846 5844 5843 5842
5823 5824 5825 5826 5827 5829 5830 5832 5833 5834 5835 5836 5838 5839 5839 5840 5841 5842 5842 5843 5844 5844 5844 5845 5846 5847 5847 5848 5849 5850 5851 5852 5853 5854 5854 5855 5855 5856 5856 5857 5858 5858 5858 5859 5859 5859 5860 5860 5860 5861 5861 5861 5861 5861 5861 5861 5861 5861 5861 5861 5861 5861 5861 5862 5861 5861 5861 5861 5861 5861 5861 5860 5860 5860 5859 5859 5859 5858 5858 5858 5857 5857 5856 5856 5855 5855 5854 5854 5853 5853 5852 5851 5850 5849 5849 5848 5848 5847 5846 5844 5843 5842 5841
5820 5821 5822 5823 5824 5826 5828 5829 5830 5831 5833 5834 5835 5836 5837 5838 5839 5839 5840 5840 5841 5842 5843 5843 5844 5844 5845 5846 5847 5848 5849 5850 5851 5851 5852 5853 5853 5854 5854 5855 5855 5856 5856 5857 5857 5858 5858 5858 5859 5859 5859 5859 5859 5859 5860 5860 5860 5860 5860 5860 5860 5860 5860 5860 5860 5860 5859 5859 5859 5859 5859 5859 5859 5859 5858 5858 5857 5857 5856 5856 5856 5855 5855 5854 5854 5853 5853 5852 5852 5851 5850 5850 5849 5848 5847 5847 5846 5845 5844 5843 5842 5841 5839
5817 5818 5819 5820 5822 5824 5825 5826 5828 5829 5830 5831 5832 5834 5835 5835 5836 5836 5837 5838 5839 5839 5840 5841 5842 5843 5843 5844 5845 5846 5847 5848 5849 5849 5850 5850 5851 5852 5852 5853 5853 5854 5854 5855 5855 5856 5856 5856 5857 5857 5857 5858 5858 5858 5858 5858 5858 5858 5858 5858 5858 5858 5858 5858 5858 5858 5858 5858 5858 5858 5858 5858 5857 5857 5856 5856 5856 5855 5855 5854 5854 5854 5853 5853 5852 5852 5851 5851 5850 5849 5849 5848 5847 5847 5846 5845 5844 5844 5843 5842 5841 5839 5838
5814 5815 5817 5819 5820 5821 5822 5824 5825 5827 5828 5829 5830 5831 5832 5833 5833 5834 5834 5835 5836 5837 5838 5839 5840 5841 5841 5842 5843 5844 5844 5845 5846 5847 5848 5849 5849 5849 5850 5850 5851 5852 5852 5853 5853 5854 5854 5854 5855 5855 5855 5856 5856 5856 5856 5856 5856 5856 5857 5856 5856 5856 5856 5856 5856 5856 5856 5856 5856 5856 5856 5856 5856 5856 5855 5855 5854 5854 5854 5853 5853 5852 5852 5851 5851 5850 5850 5849 5849 5848 5848 5847 5846 5845 5844 5844 5843 5842 5841 5840 5839 5838 5837
5811 5812 5814 5815 5817 5818 5819 5822 5823 5824 5825 5826 5827 5829 5829 5830 5831 5831 5832 5833 5834 5835 5836 5837 5838 5839 5839 5840 5841 5841 5842 5843 5844 5845 5846 5846 5847 5847 5848 5848 5849 5849 5850 5851 5851 5852 5852 5852 5853 5853 5854 5854 5854 5854 5854 5854 5854 5855 5855 5855 5855 5855 5855 5855 5855 5855 5855 5855 5855 5854 5854 5854 5854 5854 5854 5853 5852 5852 5852 5851 5851 5851 5850 5850 5849 5849 5848 5848 5847 5846 5846 5845 5844 5844 5843 5842 5841 5840 5839 5838 5837 5836 5835
5808 5809 5810 5812 5813 5814 5817 5819 5820 5821 5822 5824 5824 5826 5827 5827 5828 5829 5829 5831 5832 5833 5834 5835 5836 5837 5837 5838 5839 5839 5840 5841 5842 5843 5844 5844 5845 5845 5846 5846 5847 5847 5848 5849 5849 5849 5850 5850 5851 5851 5851 5852 5852 5852 5852 5853 5853 5853 5853 5853 5853 5853 5853 5853 5853 5853 5853 5853 5853 5853 5853 5852 5852 5852 5852 5851 5851 5850 5850 5850 5849 5849 5849 5848 5848 5847 5847 5846 5845 5845 5844 5844 5843 5842 5841 5840 5839 5838 5837 5836 5835 5834 5833
5804 5805 5807 5809 5811 5812 5814 5816 5817 5818 5819 5821 5822 5823 5824 5824 5825 5826 5827 5828 5829 5830 5831 5832 5834 5835 5835 5836 5836 5837 5838 5839 5839 5840 5841 5842 5843 5843 5844 5844 5844 5845 5845 5846 5847 5847 5848 5848 5849 5849 5849 5849 5850 5850 5850 5851 5851 5851 5851 5851 5851 5851 5851 5851 5851 5851 5851 5851 5851 5851 5851 5850 5850 5850 5850 5849 5849 5849 5849 5848 5848 5847 5847 5846 5846 5845 5845 5844 5844 5843 5843 5842 5841 5840 5839 5838 5837 5836 5835 5834 5833 5832 5831
5800 5802 5804 5806 5808 5809 5810 5813 5814 5816 5815 5817 5819 5819 5820 5821 5822 5823 5824 5825 5826 5827 5829 5830 5831 5832 5833 5834 5834 5835 5835 5836 5837 5838 5839 5840 5840 5841 5841 5842 5842 5843 5843 5844 5844 5845 5845 5846 5846 5847 5847 5847 5848 5848 5848 5849 5849 5849 5849 5849 5849 5849 5849 5849 5849 5849 5849 5849 5849 5849 5849 5849 5848 5848 5848 5848 5847 5847 5847 5846 5846 5846 5845 5845 5844 5844 5843 5843 5842 5842 5841 5840 5840 5839 5838 5837 5836 5834 5833 5832 5831 5830 5829
5796 5798 5801 5803 5804 5806 5808 5809 5812 5813 5813 5814 5815 5816 5817 5818 5819 5820 5821 5822 5824 5825 5826 5827 5829 5830 5831 5831 5832 5832 5833 5834 5834 5835 5836 5837 5838 5839 5839 5839 5840 5840 5841 5842 5842 5843 5843 5844 5844 5844 5845 5845 5845 5846 5846 5846 5847 5847 5847 5847 5847 5847 5847 5847 5847 5847 5847 5847 5847 5847 5847 5847 5847 5846 5846 5846 5845 5845 5845 5844 5844 5844 5844 5843 5843 5842 5842 5841 5841 5840 5839 5839 5838 5837 5836 5835 5834 5833 5831 5830 5829 5828 5827
5793 5795 5797 5799 5801 5803 5805 5807 5808 5809 5811 5811 5811 5813 5814 5815 5816 5817 5818 5819 5820 5822 5823 5824 5826 5827 5828 5829 5829 5830 5831 5831 5832 5833 5834 5834 5835 5836 5837 5837 5838 5838 5839 5839 5840 5840 5841 5841 5842 5842 5842 5843 5843 5844 5844 5844 5844 5844 5845 5845 5845 5845 5845 5845 5845 5845 5845 5845 5845 5845 5845 5845 5844 5844 5844 5844 5844 5843 5843 5843 5842 5842 5841 5841 5841 5840 5840 5839 5839 5838 5838 5837 5836 5835 5834 5833 5832 5831 5830 5829 5827 5826 5825
5789 5791 5794 5795 5798 5799 5801 5803 5804 5805 5806 5807 5808 5809 5810 5811 5813 5814 5815 5816 5817 5819 5820 5821 5823 5824 5825 5826 5827 5828 5828 5829 5829 5830 5831 5832 5832 5833 5834 5834 5835 5836 5836 5837 5837 5838 5838 5839 5839 5840 5840 5841 5841 5841 5842 5842 5842 5842 5843 5843 5843 5843 5843 5843 5843 5843 5843 5843 5843 5843 5843 5843 5843 5842 5842 5842 5841 5841 5841 5840 5840 5840 5839 5839 5839 5839 5838 5838 5837 5836 5836 5835 5834 5833 5832 5831 5830 5829 5828 5827 5825 5824 5823
5785 5787 5789 5792 5794 5795 5797 5799 5801 5802 5803 5804 5804 5806 5807 5808 5809 5810 5812 5813 5814 5815 5817 5818 5820 5821 5822 5823 5824 5825 5826 5826 5827 5827 5828 5829 5829 5830 5831 5832 5833 5833 5834 5834 5835 5835 5836 5836 5837 5837 5838 5838 5839 5839 5839 5839 5840 5840 5840 5840 5841 5841 5841 5841 5841 5841 5841 5841 5841 5841 5841 5840 5840 5840 5840 5840 5839 5839 5839 5839 5838 5838 5838 5837 5837 5836 5836 5836 5835 5835 5834 5833 5833 5832 5830 5829 5829 5827 5826 5825 5824 5822 5821
5781 5783 5785 5788 5790 5791 5793 5795 5797 5798 5799 5800 5801 5802 5803 5804 5806 5807 5808 5809 5810 5812 5814 5815 5816 5818 5819 5820 5821 5822 5823 5824 5824 5824 5825 5825 5826 5827 5828 5829 5830 5830 5831 5832 5832 5833 5833 5834 5834 5835 5835 5836 5836 5836 5837 5837 5837 5838 5838 5838 5839 5839 5839 5839 5839 5839 5839 5839 5839 5839 5839 5838 5838 5838 5838 5838 5837 5837 5837 5836 5836 5836 5835 5835 5835 5834 5834 5834 5833 5833 5832 5831 5831 5830 5829 5828 5827 5825 5824 5823 5822 5820 5819
5777 5779 5781 5784 5786 5788 5789 5791 5792 5793 5796 5797 5798 5799 5800 5801 5802 5803 5804 5806 5807 5809 5810 5812 5813 5814 5816 5817 5818 5819 5820 5821 5821 5821 5822 5822 5823 5824 5825 5826 5827 5828 5829 5829 5829 5830 5831 5831 5832 5832 5833 5833 5834 5834 5834 5834 5835 5835 5836 5836 5836 5836 5836 5836 5836 5836 5836 5836 5836 5836 5836 5836 5836 5836 5835 5835 5835 5835 5834 5834 5834 5834 5833 5833 5833 5832 5832 5831 5831 5830 5829 5829 5829 5828 5827 5826 5825 5824 5823 5821 5820 5819 5818
5774 5775 5777 5779 5782 5784 5785 5787 5788 5789 5791 5794 5796 5797 5797 5797 5798 5800 5802 5803 5804 5805 5807 5809 5810 5811 5812 5814 5814 5816 5816 5817 5818 5818 5819 5819 5820 5821 5822 5823 5824 5825 5826 5826 5827 5828 5828 5829 5829 5830 5830 5830 5831 5831 5832 5832 5832 5833 5833 5833 5834 5834 5834 5834 5834 5834 5834 5834 5834 5834 5834 5834 5834 5834 5833 5833 5833 5832 5832 5832 5832 5831 5831 5831 5830 5830 5829 5829 5829 5829 5828 5827 5827 5826 5825 5824 5823 5822 5820 5819 5818 5817 5816
5770 5771 5773 5775 5778 5780 5782 5783 5784 5786 5789 5791 5794 5795 5794 5793 5794 5797 5799 5800 5801 5802 5804 5805 5807 5808 5809 5810 5811 5812 5813 5814 5814 5815 5816 5817 5818 5819 5819 5820 5821 5822 5823 5823 5824 5825 5825 5826 5827 5827 5828 5828 5828 5829 5829 5829 5830 5830 5830 5831 5831 5831 5831 5831 5831 5831 5831 5832 5832 5832 5832 5831 5831 5831 5831 5830 5830 5830 5830 5829 5829 5829 5829 5828 5828 5828 5827 5827 5827 5826 5826 5825 5824 5824 5823 5822 5821 5819 5818 5817 5816 5815 5814
5766 5768 5769 5771 5773 5776 5778 5779 5781 5783 5785 5787 5789 5791 5791 5790 5791 5794 5795 5797 5798 5799 5800 5802 5803 5804 5805 5806 5807 5808 5809 5810 5811 5812 5813 5814 5814 5815 5816 5817 5818 5819 5819 5820 5821 5822 5822 5823 5824 5824 5825 5825 5825 5826 5826 5827 5827 5827 5828 5828 5828 5828 5828 5829 5829 5829 5829 5829 5829 5829 5829 5829 5829 5829 5828 5828 5828 5828 5827 5827 5827 5826 5826 5826 5826 5825 5825 5825 5824 5824 5824 5823 5822 5821 5820 5819 5819 5817 5816 5815 5814 5813 5812
5763 5764 5765 5767 5769 5771 5774 5776 5778 5779 5781 5783 5784 5785 5786 5787 5788 5790 5792 5793 5794 5795 5796 5798 5799 5801 5802 5803 5804 5805 5806 5807 5808 5809 5809 5810 5811 5812 5814 5814 5815 5816 5817 5817 5818 5819 5819 5820 5821 5821 5822 5822 5823 5823 5823 5824 5824 5824 5824 5825 5825 5825 5825 5825 5826 5826 5826 5826 5826 5826 5826 5826 5826 5826 5826 5825 5825 5825 5825 5824 5824 5824 5824 5824 5823 5823 5823 5822 5822 5822 5821 5820 5820 5819 5818 5817 5816 5815 5814 5813 5812 5811 5810
5760 5760 5761 5763 5765 5767 5770 5772 5774 5775 5778 5779 5780 5781 5783 5783 5784 5786 5787 5789 5790 5791 5792 5793 5795 5796 5798 5799 5800 5802 5803 5803 5804 5805 5806 5807 5808 5809 5810 5811 5812 5813 5814 5814 5815 5815 5816 5817 5818 5819 5819 5819 5820 5820 5820 5821 5821 5821 5822 5822 5822 5822 5822 5823 5823 5823 5823 5823 5824 5824 5824 5824 5824 5824 5823 5823 5823 5822 5822 5822 5822 5821 5821 5821 5821 5821 5820 5820 5820 5819 5819 5818 5818 5817 5816 5814 5814 5812 5811 5810 5809 5809 5808
5758 5758 5758 5759 5761 5763 5766 5768 5770 5772 5774 5776 5778 5779 5779 5780 5780 5781 5783 5785 5786 5787 5788 5789 5791 5793 5794 5795 5797 5798 5799 5799 5800 5801 5802 5803 5804 5806 5807 5807 5808 5809 5809 5811 5812 5813 5814 5814 5815 5815 5816 5816 5817 5817 5817 5818 5818 5818 5819 5819 5819 5819 5819 5819 5820 5820 5820 5820 5820 5821 5821 5821 5821 5821 5820 5820 5820 5819 5819 5819 5819 5819 5819 5819 5818 5818 5818 5818 5817 5817 5816 5816 5815 5814 5813 5812 5811 5810 5809 5808 5807 5807 5806
5756 5756 5757 5757 5758 5760 5762 5764 5766 5768 5770 5774 5775 5774 5775 5776 5777 5778 5779 5781 5782 5783 5784 5786 5788 5789 5790 5791 5793 5794 5795 5796 5797 5798 5799 5800 5801 5802 5803 5804 5804 5806 5807 5808 5809 5809 5811 5811 5812 5813 5813 5814 5814 5814 5814 5814 5815 5815 5815 5816 5816 5816 5816 5816 5817 5817 5817 5818 5818 5818 5818 5818 5818 5818 5818 5817 5817 5817 5817 5816 5816 5816 5816 5816 5815 5815 5815 5815 5815 5814 5814 5814 5813 5812 5811 5810 5809 5808 5807 5806 5805 5805 5804
5752 5753 5755 5756 5755 5756 5758 5760 5762 5764 5766 5770 5772 5771 5771 5772 5773 5774 5775 5777 5778 5779 5781 5782 5784 5785 5786 5787 5789 5790 5791 5792 5793 5794 5796 5796 5797 5798 5799 5800 5801 5803 5804 5805 5805 5806 5808 5809 5809 5810 5810 5810 5810 5810 5811 5811 5812 5812 5812 5813 5813 5813 5813 5813 5814 5814 5814 5814 5815 5815 5815 5815 5815 5815 5815 5814 5814 5814 5814 5814 5813 5813 5813 5813 5813 5813 5812 5812 5812 5812 5812 5811 5810 5809 5809 5808 5807 5806 5805 5804 5804 5803 5802
5749 5750 5752 5754 5754 5754 5754 5756 5758 5759 5761 5764 5766 5768 5768 5769 5769 5770 5771 5773 5774 5775 5777 5779 5780 5781 5782 5783 5785 5786 5788 5789 5790 5791 5792 5792 5793 5794 5795 5797 5799 5800 5801 5801 5802 5803 5805 5806 5806 5806 5807 5807 5807 5807 5807 5808 5809 5809 5809 5809 5810 5810 5810 5810 5810 5811 5811 5812 5812 5812 5812 5812 5812 5812 5812 5811 5811 5811 5811 5811 5810 5810 5810 5810 5810 5809 5809 5809 5809 5809 5809 5809 5808 5807 5806 5805 5804 5804 5803 5802 5801 5801 5800
5745 5747 5748 5750 5753 5754 5751 5752 5754 5755 5757 5759 5761 5764 5764 5765 5765 5767 5768 5769 5770 5771 5773 5774 5776 5777 5777 5779 5781 5783 5784 5785 5786 5787 5787 5788 5790 5791 5792 5794 5796 5796 5796 5798 5799 5801 5803 5803 5803 5802 5802 5803 5803 5804 5804 5805 5805 5805 5806 5806 5807 5807 5807 5807 5808 5808 5808 5808 5808 5809 5809 5809 5809 5809 5809 5809 5808 5808 5808 5808 5808 5807 5807 5807 5807 5807 5807 5807 5807 5807 5806 5806 5805 5804 5804 5803 5802 5801 5800 5800 5799 5799 5798
5742 5743 5744 5745 5748 5751 5750 5749 5750 5752 5753 5754 5756 5758 5760 5761 5762 5763 5765 5766 5766 5767 5769 5770 5771 5772 5774 5775 5777 5779 5780 5781 5782 5783 5784 5784 5786 5788 5789 5790 5791 5792 5793 5794 5797 5799 5799 5799 5798 5798 5798 5799 5800 5800 5801 5802 5802 5802 5803 5803 5804 5804 5804 5804 5804 5804 5805 5805 5805 5805 5805 5805 5806 5806 5806 5805 5805 5805 5805 5805 5804 5804 5804 5804 5804 5804 5804 5804 5804 5804 5804 5803 5802 5802 5801 5800 5800 5799 5798 5798 5797 5797 5796
5739 5740 5741 5742 5744 5745 5748 5748 5748 5748 5749 5750 5751 5752 5754 5756 5758 5760 5762 5764 5765 5765 5764 5766 5767 5768 5769 5771 5773 5774 5775 5777 5778 5779 5779 5781 5783 5784 5785 5786 5787 5789 5791 5792 5794 5795 5794 5794 5794 5794 5795 5797 5797 5797 5798 5798 5799 5799 5799 5799 5800 5800 5801 5801 5801 5801 5801 5801 5801 5802 5802 5802 5803 5803 5802 5802 5802 5802 5802 5802 5802 5801 5801 5801 5801 5801 5801 5801 5801 5801 5801 5800 5800 5799 5799 5798 5797 5797 5796 5796 5795 5794 5794
5736 5737 5738 5739 5740 5741 5743 5744 5745 5746 5746 5746 5748 5749 5749 5752 5754 5756 5759 5762 5763 5763 5762 5762 5763 5764 5766 5768 5769 5770 5771 5772 5774 5775 5776 5777 5779 5780 5781 5783 5784 5786 5787 5789 5790 5790 5790 5790 5790 5791 5792 5793 5794 5794 5794 5794 5795 5796 5796 5796 5797 5797 5797 5798 5797 5797 5797 5797 5798 5798 5799 5799 5799 5799 5799 5799 5799 5799 5799 5799 5799 5798 5798 5798 5798 5798 5799 5799 5799 5798 5798 5798 5797 5796 5796 5795 5795 5794 5794 5794 5793 5793 5792
5733 5734 5735 5736 5738 5739 5740 5741 5742 5743 5743 5743 5745 5746 5746 5747 5749 5752 5755 5758 5760 5761 5760 5759 5759 5761 5763 5764 5765 5766 5766 5768 5770 5771 5772 5773 5774 5776 5778 5779 5780 5782 5784 5785 5786 5786 5786 5786 5787 5788 5789 5789 5789 5790 5791 5791 5792 5792 5793 5793 5793 5794 5794 5794 5794 5793 5793 5794 5794 5794 5795 5795 5796 5796 5796 5796 5796 5796 5796 5796 5795 5795 5795 5795 5795 5795 5795 5795 5795 5795 5795 5795 5794 5794 5793 5793 5792 5792 5791 5791 5791 5790 5790
5729 5730 5732 5733 5734 5735 5737 5738 5739 5740 5740 5741 5742 5742 5742 5744 5746 5749 5751 5754 5757 5759 5759 5755 5755 5757 5759 5760 5761 5762 5764 5765 5767 5768 5769 5769 5771 5773 5775 5776 5777 5779 5780 5781 5782 5783 5783 5783 5783 5784 5785 5785 5786 5787 5788 5788 5789 5789 5789 5789 5790 5790 5791 5791 5791 5790 5789 5790 5790 5791 5791 5792 5792 5792 5792 5792 5792 5792 5793 5792 5792 5792 5792 5792 5792 5792 5793 5793 5792 5792 5792 5792 5791 5791 5790 5790 5790 5789 5789 5789 5789 5789 5788
5726 5727 5729 5730 5731 5732 5734 5735 5736 5737 5738 5738 5739 5739 5739 5740 5742 5745 5747 5749 5752 5754 5754 5752 5752 5754 5755 5757 5758 5760 5761 5763 5764 5764 5765 5766 5767 5769 5771 5772 5773 5774 5776 5777 5778 5779 5779 5779 5778 5779 5779 5781 5782 5784 5784 5785 5785 5785 5785 5786 5787 5787 5787 5788 5788 5787 5787 5787 5787 5788 5788 5788 5788 5788 5788 5788 5789 5789 5789 5789 5789 5789 5789 5789 5789 5789 5789 5789 5789 5789 5789 5789 5788 5788 5787 5787 5787 5786 5786 5786 5786 5786 5786